sat.trackr.live / text

‹ back to catalog

USA 134

NORAD 25019 · 1997-065A

PAYLOAD ACTIVE UNKNOWN

§ Identity

Operator
Country
US
Launch date
1997-10-25
Launch site
AFETR
Launch vehicle
Mass (kg)
RCS (m²)

Purposes: comms

External: N2YO · Heavens-Above · Gunter

§ Orbital elements

Epoch: 2026-05-24T07:28:01.220736Z

Period
1,436.09 min
Inclination
12.7575°
Eccentricity
0.0004786
Mean motion
1.00272569 rev/d
Perigee alt
35,766.2 km
Apogee alt
35,806.6 km
Semi-major
42,164.5 km
B*
0.0000e+0
RAAN
21.9057°
Arg perigee
334.9657°
Mean anomaly
244.8972°
Rev number
3,271

§ Raw data

USA 1341 25019U 97065A   26144.31112524 -.00000072  00000+0  00000+0 0  99982 25019  12.7575  21.9057 0004786 334.9657 244.8972  1.00272569 32713

JSON: /api/v1/satellites/25019 · /tle

For live sub-satellite position, see the globe view (requires WebGL).

§ Visibility from observer

Set your observer location to see the next 7 days of passes ≥ 10°. The values pass through the URL so the page stays shareable.

No JS? Fill the form by hand. The geolocation button needs JavaScript.